Regional Weather Roundup
Issued by NWS

Home | Current Version | Previous Version | Graphics & Text | Print | Product List | Glossary On
Versions: 1 2 3 4 5 6 7 8 9 10 11 12 13 14 15 16 17 18 19 20 21 22 23 24 25 26 27 28 29 30 31 32 33 34 35 36 37 38 39 40 41 42 43 44 45 46 47 48 49 50
000
ASUS43 KMKX 221600
RWRWI

WISCONSIN REGIONAL WEATHER ROUNDUP
NATIONAL WEATHER SERVICE MILWAUKEE/SULLIVAN WI
1100 AM CDT TUE APR 22 2014

NOTE: "FAIR" INDICATES FEW OR NO CLOUDS BELOW 12,000 FEET WITH NO
SIGNIFICANT WEATHER AND/OR OBSTRUCTIONS TO VISIBILITY.

WIZ001-002-006>008-014>016-023>028-221700-
NORTHWEST WISCONSIN

CITY           SKY/WX    TMP DP  RH WIND       PRES   REMARKS
SUPERIOR ARPT  SUNNY     44  26  48 NW9       30.12S
ASHLAND        SUNNY     43  28  55 N15G21    30.10R
HAYWARD        SUNNY     45  22  40 VRB7      30.08S
SIREN          SUNNY     43  22  43 N14G20    30.12S
RICE LAKE      SUNNY     44  25  47 NW13G18   30.10S
LADYSMITH      SUNNY     43  26  52 NW10G22   30.07S
EAU CLAIRE     NOT AVBL
MENOMONIE      SUNNY     45  26  47 NW10G18   30.09S
NEW RICHMOND   MOSUNNY   46  29  51 NW13      30.11F
OSCEOLA        SUNNY     45  28  51 NW15G22   30.15F
$$

WIZ003>005-009-010-017-018-221700-
NORTH CENTRAL WISCONSIN

CITY           SKY/WX    TMP DP  RH WIND       PRES   REMARKS
WOODRUFF       CLOUDY    39  24  55 N10       30.01S WCI  32
RHINELANDER    CLOUDY    36  22  56 N12G22    30.01R WCI  28
EAGLE RIVER    CLOUDY    37  22  56 N13       29.99R WCI  28
LAND O LAKES   CLOUDY    36  24  63 NW12G23   30.00R WCI  27
PHILLIPS       CLOUDY    39  24  54 N10G22    30.03R WCI  33
TOMAHAWK       PTSUNNY   40  23  52 NW12G22   30.02R WCI  32
MEDFORD        MOSUNNY   42  27  55 N12       30.01S
MERRILL        PTSUNNY   42  25  51 N17G24    30.00S
$$

WIZ029-030-035-036-043>047-221700-
CENTRAL WISCONSIN

CITY           SKY/WX    TMP DP  RH WIND       PRES   REMARKS
WAUSAU         MOSUNNY   43  24  47 N13       29.99S
MOSINEE        MOSUNNY   43  27  52 NW12      30.01F
MARSHFIELD     MOSUNNY   45  29  53 NW16      30.01F
STEVENS POINT  PTSUNNY   42  24  49 NW14G21   30.01S
WAUPACA        MOSUNNY   48  27  43 NW13G20   29.99S
WAUTOMA        NOT AVBL
WISC RAPIDS    PTSUNNY   45  27  49 N14       30.03S
CAMP DOUGLAS   NOT AVBL
$$

WIZ011>013-019>022-031-037>040-048>050-221700-
NORTHEAST WISCONSIN

CITY           SKY/WX    TMP DP  RH WIND       PRES   REMARKS
ANTIGO         CLOUDY    37  27  67 N16G22    29.98S WCI  27
STURGEON BAY   CLOUDY    45  28  53 NW17G23   29.94S
GREEN BAY      PTSUNNY   45  32  60 NW16      29.97S
MANITOWOC      NOT AVBL
APPLETON       PTSUNNY   45  28  53 NW17G24   29.98S
CLINTONVILLE   MOSUNNY   43  27  52 NW14G25   29.99R
OSHKOSH          N/A    N/A N/A N/A MISG      29.97F
$$

WIZ032>034-041-042-053>061-221700-
SOUTHWEST WISCONSIN

CITY           SKY/WX    TMP DP  RH WIND       PRES   REMARKS
LA CROSSE      SUNNY     50  28  42 NW12      30.08S
SPARTA         SUNNY     46  26  46 NW10G16   30.06F
VIROQUA        FAIR      46  29  52 NW13G21   30.05S
BOSCOBEL       SUNNY     51  26  37 VRB6G20   30.06F
PRAIRIE DU CHI SUNNY     48  27  44 NW7G16    30.07S
PLATTEVILLE    FAIR      49  28  44 NW8       30.05S
$$

WIZ056-057-062-063-064-067-068-221700-
SOUTH CENTRAL WISCONSIN

CITY           SKY/WX    TMP DP  RH WIND       PRES   REMARKS
BARABOO/DELLS  SUNNY     46  27  48 NW10G20   30.02S
LONE ROCK      NOT AVBL
WATERTOWN      SUNNY     46  32  56 NW12      29.98F
MADISON        SUNNY     49  28  44 NW15      30.01R
MIDDLETON      FAIR      49  27  42 NW12      30.02S
MONROE         SUNNY     48  29  46 NW8G16    30.01R
JANESVILLE     SUNNY     50  28  43 N14G20    30.00R
$$

WIZ051-052-058>065-066-070>072-221700-
SOUTHEAST WISCONSIN

CITY           SKY/WX    TMP DP  RH WIND       PRES   REMARKS
MILWAUKEE      MOSUNNY   50  30  46 NW14      29.97S
WAUKESHA       SUNNY     46  30  53 NW12G29   29.97F
MILWAUKEE/TIMM SUNNY     48  28  46 NW18G25   29.97S
RACINE         SUNNY     50  30  46 NW14G21   29.98S
BURLINGTON     SUNNY     46  30  55 N12G17    29.97F
KENOSHA        SUNNY     49  30  48 N15G24    29.97F
FOND DU LAC    MOSUNNY   49  30  48 N16       29.97F
SHEBOYGAN      SUNNY     48  30  49 NW16G25   29.95S
WEST BEND      SUNNY     46  30  53 W12G18    29.97S
JUNEAU         SUNNY     46  26  46 NW12G17   29.98F
$$

LSZ147-162-221700-
LAKE SUPERIOR

STATION/POSITION TIME  TEMP    WIND        PRES    WAVE
                       AIR SEA DIR/SP/G            HT/PER
                 (UTC) (F)     (DEG/KT/KT) (MB)    (FT/S)
DEVILS ISLAND    1500   36     300/  8/  9 1019.7R
PORT WING        1540   37     270/ 10/ 13 1019.6R
SAXON HARBOR     1500          310/  6/  7 1019.0
$$

LMZ867-665-643>646-221700-
LAKE MICHIGAN

STATION/POSITION TIME  TEMP    WIND        PRES    WAVE
                       AIR SEA DIR/SP/G            HT/PER
                 (UTC) (F)     (DEG/KT/KT) (MB)    (FT/S)
NORTHPORT PIER   1500   36     310/ 13/ 17 1013.2R
SISTER BAY       1509   37     350/ 12/ 13   N/A
KEWAUNEE LAKESHO 1500   44     330/ 13/ 23 1014.3R
SHEBOYGAN LAKESH 1500   45     340/ 21/ 24 1014.7R
PORT WASHINGTON  1500   46     300/ 14/ 20 1015.2S
MILWAUKEE LAKESH 1500   45     310/ 11/ 15   N/A
KENOSHA   LAKESH 1500   45     320/ 15/ 22   N/A
$$

TC  - TEMPERATURE IN CELSIUS
VSB - VISIBILITY IN STATUTE MILES
WCI - WIND CHILL INDEX
HX  - HEAT INDEX




USA.gov is the U.S. government's official web portal to all federal, state and local government web resources and services.